CAPE
0 0 0 0 0 0 0 0 0 0 0 0 0 0 0 0 0 0 0 0 0 0 0 1 6 7 16 19 18 15 12 8 8 11 8 4 5 15 71 98 147 165 186
0 0 0 0 0 0 0 0 0 0 0 0 0 0 0 0 0 0 0 0 0 0 0 0 0 7 9 31 20 9 4 6 4 1 9 13 7 6 3 24 65 45 80
0 0 0 0 0 0 0 0 0 0 0 0 0 0 0 0 0 0 0 0 0 0 0 0 0 0 34 33 8 11 3 1 1 0 0 1 8 6 7 4 26 70 44
0 0 0 0 0 0 0 0 0 0 0 0 0 0 0 0 0 0 0 0 0 0 0 0 0 7 12 2 3 8 4 1 0 0 1 0 0 0 8 6 5 6 44
0 0 0 0 0 0 0 0 0 0 0 0 0 0 0 0 0 0 0 0 0 0 0 0 0 0 1 0 0 0 1 0 0 0 0 0 0 0 0 2 6 3 5
0 0 0 0 0 0 0 0 0 0 0 0 0 0 0 0 0 0 0 0 0 0 0 0 0 0 0 0 0 0 0 0 0 0 0 0 0 0 0 0 0 5 8
0 0 0 0 0 0 0 0 0 0 0 0 0 0 0 0 0 0 0 0 0 0 0 0 0 0 0 0 0 0 0 0 0 0 0 0 0 0 0 0 0 0 2
0 0 0 0 0 0 0 0 0 0 0 0 0 0 0 0 0 0 0 0 0 0 0 0 0 0 0 0 0 0 0 0 0 0 0 0 0 0 0 0 0 0 0
0 0 0 0 0 0 0 0 0 0 0 0 0 0 0 0 0 0 0 0 0 0 0 0 0 0 0 0 0 0 0 0 0 0 0 0 0 0 0 0 0 0 0
0 0 0 0 0 0 0 0 0 0 0 0 0 0 0 0 0 0 0 0 0 0 0 0 0 0 0 0 0 0 0 0 0 0 0 0 0 0 0 0 0 0 0
0 0 0 0 0 0 0 0 0 0 0 0 0 0 0 0 0 0 0 0 0 0 0 0 0 0 0 0 0 0 0 0 0 0 0 0 0 0 0 0 0 0 0
0 0 0 0 0 0 0 0 0 0 0 0 0 0 0 0 0 0 0 0 0 0 0 0 0 0 0 0 0 0 0 0 0 0 0 0 0 0 0 0 0 0 0
0 0 0 0 0 0 0 0 0 0 0 0 0 0 0 0 0 0 0 0 0 0 0 0 0 0 0 0 0 0 0 0 0 0 0 0 0 0 0 0 0 0 0
0 0 0 0 0 0 0 0 0 0 0 0 0 0 0 0 0 0 0 0 0 0 0 0 0 0 0 0 0 0 0 0 0 0 0 0 0 0 0 0 0 0 0
0 0 0 0 0 0 0 0 0 0 0 0 0 0 0 0 0 0 0 0 0 0 0 0 0 0 0 0 0 0 0 0 0 0 0 0 0 0 0 0 0 0 0
0 0 0 0 0 0 0 0 0 0 0 0 0 0 0 0 0 0 0 0 0 0 0 0 0 0 0 0 0 0 0 0 0 0 0 0 0 0 0 0 0 0 0
0 0 0 0 0 0 0 0 0 0 0 0 0 0 0 0 0 0 0 0 0 0 0 0 0 0 0 0 0 0 0 0 0 0 0 0 0 0 0 0 0 0 0
0 0 0 0 0 0 0 0 0 0 0 0 0 0 0 0 0 0 0 0 0 0 0 0 0 0 0 0 0 0 0 0 0 0 0 0 0 0 0 0 0 0 0
0 0 0 0 0 0 0 0 0 0 0 0 0 0 0 0 0 0 0 0 0 0 0 0 0 0 0 0 0 0 0 0 0 0 0 0 0 0 0 0 0 0 0
0 0 0 0 0 0 0 0 0 0 0 0 0 0 0 0 0 0 0 0 0 0 0 0 0 0 0 0 0 0 0 0 0 0 0 0 0 0 0 0 0 0 0
0 0 0 0 0 0 0 0 0 0 0 0 0 0 0 0 0 0 0 0 0 0 0 0 0 0 0 0 0 0 0 0 0 0 0 0 0 0 0 0 0 0 0
0 0 0 0 0 0 0 0 0 0 0 0 0 0 0 0 0 0 0 0 0 0 0 0 0 0 0 0 0 0 1 1 1 0 0 0 0 0 0 0 0 0 0
0 0 0 0 0 0 0 0 0 0 0 0 0 0 0 0 0 0 0 0 0 0 0 0 0 0 0 0 0 0 0 0 0 0 0 0 0 0 0 0 0 0 0
0 0 0 0 0 0 0 0 0 0 0 0 0 0 0 0 0 0 0 0 0 0 0 0 0 0 0 2 2 3 1 3 3 2 0 0 0 0 0 0 0 0 0
0 0 0 0 0 0 0 0 0 0 0 0 0 0 0 0 0 0 0 0 0 0 0 0 0 0 0 0 0 1 0 0 0 0 0 0 0 0 3 0 0 0 0
0 0 0 0 0 0 0 0 0 0 0 0 0 0 0 0 0 0 0 0 0 0 0 0 0 0 0 0 0 0 0 0 0 0 0 1 0 0 1 0 0 0 0
CIN
0 0 0 0 0 0 0 0 0 0 0 0 0 0 0 0 0 0 0 0 0 0 0 -0 -1 -0 -1 -0 -0 -0 -0 -0 -0 -0 0 0 0 -39 -16 -62 -35 -5 -3
0 0 0 0 0 0 0 0 0 0 0 0 0 0 0 0 0 0 0 0 0 0 0 0 -0 -1 -0 -0 -1 -0 -1 -0 -0 -0 -0 -0 0 0 0 -52 -20 -46 -23
0 0 0 0 0 0 0 0 0 0 0 0 0 0 0 0 0 0 0 0 0 0 0 0 0 0 -1 -0 -1 -1 -1 -1 -0 -1 0 -0 -0 0 0 0 -26 -20 -34
0 0 0 0 0 0 0 0 0 0 0 0 0 0 0 0 0 0 0 0 0 0 0 0 0 -0 -0 -10 -3 -1 -1 -0 0 0 -0 -0 0 -0 0 0 0 -44 -30
0 0 0 0 0 0 0 0 0 0 0 0 0 0 0 0 0 0 0 0 0 0 0 0 0 0 -0 0 0 -1 -1 0 0 0 -0 -0 -0 -0 -0 -0 -0 0 0
0 0 0 0 0 0 0 0 0 0 0 0 0 0 0 0 0 0 0 0 0 0 0 0 0 0 0 0 0 0 0 0 0 0 0 0 0 0 0 0 -0 -0 -0
0 0 0 0 0 0 0 0 0 0 0 0 0 0 0 0 0 0 0 0 0 0 0 0 0 0 0 0 0 0 0 0 0 0 0 0 0 0 0 0 0 0 -0
0 0 0 0 0 0 0 0 0 0 0 0 0 0 0 0 0 0 0 0 0 0 0 0 0 0 0 0 0 0 0 0 0 0 0 0 0 0 0 0 0 0 0
0 0 0 0 0 0 0 0 0 0 0 0 0 0 0 0 0 0 0 0 0 0 0 0 0 0 0 0 0 0 0 0 0 0 0 0 0 0 0 0 0 0 0
0 0 0 0 0 0 0 0 0 0 0 0 0 0 0 0 0 0 0 0 0 0 0 0 0 0 0 0 0 0 0 0 0 0 0 0 0 0 0 0 0 0 0
0 0 0 0 0 0 0 0 0 0 0 0 0 0 0 0 0 0 0 0 0 0 0 0 0 0 0 0 0 0 0 0 0 0 0 0 0 0 0 0 0 0 0
0 0 0 0 0 0 0 0 0 0 0 0 0 0 0 0 0 0 0 0 0 0 0 0 0 0 0 0 0 0 0 0 0 0 0 0 0 -0 0 0 0 0 0
0 0 0 0 0 0 0 0 0 0 0 0 0 0 0 0 0 0 0 0 0 0 0 0 0 0 0 0 0 0 0 0 0 0 0 0 0 0 0 0 0 0 0
0 0 0 0 0 0 0 0 0 0 0 0 0 0 0 0 0 0 0 0 0 0 0 0 0 0 0 0 0 0 0 0 0 0 0 0 0 0 0 0 0 0 0
0 0 0 0 0 0 0 0 0 0 0 0 0 0 0 0 0 0 0 0 0 0 0 0 0 0 0 0 0 0 0 0 0 0 0 0 0 0 0 0 0 0 0
0 0 0 0 0 0 0 0 0 0 0 0 0 0 0 0 0 0 0 0 0 0 0 0 0 0 0 0 0 0 0 0 0 0 0 0 0 0 0 0 0 0 0
0 0 0 0 0 0 0 0 0 0 0 0 0 0 0 0 0 0 0 0 0 0 0 0 0 0 0 0 0 0 0 0 0 0 0 0 0 0 0 0 0 0 0
0 0 0 0 0 0 0 0 0 0 0 0 0 0 0 0 0 0 0 0 0 0 0 0 0 0 0 0 0 0 0 0 0 0 0 0 0 0 0 0 0 0 0
0 0 0 0 0 0 0 0 0 0 0 0 0 0 0 0 0 0 0 0 0 0 0 0 0 0 0 0 0 0 0 0 0 0 0 0 0 0 0 0 0 0 0
0 0 0 0 0 0 0 0 0 0 0 0 0 0 0 0 0 0 0 0 0 0 0 0 0 0 0 0 0 0 0 0 0 0 0 0 0 0 0 0 0 0 0
0 0 0 0 0 0 0 0 0 0 0 0 0 0 0 0 0 0 0 0 0 0 0 0 0 0 0 0 0 0 0 0 0 0 0 0 0 0 0 0 0 0 0
0 0 0 0 0 0 0 0 0 0 0 0 0 0 0 0 0 0 0 0 0 0 0 0 0 0 0 0 0 0 -0 -0 -0 0 0 0 0 0 0 0 0 0 0
0 0 0 0 0 0 0 0 0 0 0 0 0 0 0 0 0 0 0 0 0 0 0 0 0 0 0 0 0 0 0 0 0 0 0 -0 0 0 0 0 0 0 0
0 0 0 0 0 0 0 0 0 0 0 0 0 0 0 0 0 0 0 0 0 0 0 0 0 0 0 -0 -1 -1 -1 -1 -1 -0 -0 0 0 0 0 0 0 0 -2
0 0 0 0 0 0 0 0 0 0 0 0 0 0 0 0 0 0 0 0 0 0 0 0 0 0 0 0 -0 -1 0 -0 0 -1 0 0 0 0 -1 0 0 0 0
0 0 0 0 0 0 0 0 0 0 0 0 0 0 0 0 0 0 0 0 0 0 0 0 0 0 0 0 0 0 0 0 0 0 0 -1 -2 -0 -1 0 0 0 0
Wind_Speed
23 24 25 26 27 27 27 27 27 27 26 26 25 23 22 19 20 21 23 25 24 24 24 25 24 24 24 24 24 24 24 24 24 24 23 24 24 22 26 19 20 20 21
24 24 25 26 27 27 27 27 26 26 26 25 25 25 23 19 20 21 22 24 25 24 25 25 25 25 24 23 23 24 25 25 25 25 24 24 24 23 22 25 24 21 18
24 24 24 26 27 26 26 27 27 27 26 24 25 24 22 20 20 22 22 23 24 25 26 26 26 24 23 23 24 25 26 26 26 25 25 25 25 24 22 23 25 24 22
24 24 25 26 27 27 27 27 27 28 27 25 23 21 20 20 21 22 23 24 24 24 25 26 26 24 23 24 24 26 27 27 27 26 25 25 24 23 23 20 19 24 29
24 24 24 26 26 27 27 27 28 27 27 25 22 21 21 21 22 23 24 24 25 25 25 26 26 24 23 24 25 26 27 28 28 26 26 25 24 23 23 22 21 20 23
24 24 24 25 26 27 27 27 27 29 26 22 21 21 21 21 22 24 24 25 26 26 27 27 25 22 23 24 25 27 28 28 27 27 26 25 25 24 24 24 23 23 23
23 23 23 24 25 26 27 27 25 27 27 21 17 18 20 22 23 24 24 26 27 28 29 27 24 23 22 25 26 27 29 28 28 27 27 27 26 25 25 24 24 24 24
22 22 22 23 24 25 26 27 26 24 25 25 17 17 17 17 22 24 25 26 28 28 28 26 25 24 23 24 26 28 29 28 29 28 28 27 28 26 26 25 24 24 25
22 22 22 22 23 24 25 25 25 24 22 24 24 18 19 19 22 21 25 27 28 28 28 26 26 25 25 25 28 29 29 29 30 29 29 29 28 28 27 26 26 25 25
21 21 21 21 22 22 24 23 24 23 22 22 21 23 21 20 21 22 22 26 28 28 28 27 26 26 27 28 29 29 30 31 30 30 29 30 30 29 28 28 28 27 26
19 20 20 20 21 21 22 22 23 23 22 22 22 21 22 22 23 21 23 28 27 27 28 26 27 27 28 29 29 29 32 32 31 32 32 31 31 30 30 30 30 30 30
17 19 19 19 20 21 21 21 21 22 22 21 21 22 22 23 24 24 24 27 27 27 25 27 28 28 29 29 30 32 32 33 33 33 32 32 32 32 32 32 32 32 32
15 17 18 18 19 20 21 20 20 21 21 21 21 21 22 23 22 24 24 26 27 25 25 24 27 28 29 30 32 34 34 34 33 33 33 32 33 33 33 34 34 34 34
13 15 17 17 18 19 20 20 19 20 20 20 20 21 22 22 24 24 24 27 29 26 26 26 27 31 31 31 34 34 35 35 35 34 34 35 35 35 35 36 36 37 37
13 14 15 16 17 18 19 20 19 19 20 20 19 21 21 22 23 23 24 25 26 29 30 26 32 31 33 33 36 36 36 35 35 35 34 36 36 37 38 38 38 39 39
12 14 15 16 16 17 18 19 19 19 19 19 20 20 22 22 22 23 25 24 24 26 29 29 31 32 33 34 35 37 35 35 35 34 37 38 38 39 39 39 40 40 41
11 13 14 15 16 16 17 18 19 18 19 20 21 21 21 21 23 23 23 22 25 26 31 32 29 33 33 36 38 36 36 35 34 35 39 39 40 40 41 41 42 43 43
11 12 14 15 15 15 16 18 18 18 19 20 22 21 22 22 23 22 21 23 25 25 28 34 32 33 35 37 37 37 36 34 34 37 40 41 40 41 41 43 44 45 46
10 12 14 15 15 15 17 17 16 17 18 20 21 22 23 24 24 22 21 24 25 26 28 31 35 34 35 36 38 37 36 35 34 40 40 38 39 40 42 44 46 47 47
10 12 13 14 15 15 16 15 15 16 18 21 22 22 23 24 23 22 23 24 26 29 30 34 37 37 37 37 36 39 38 37 40 39 39 38 39 40 43 44 45 45 47
10 12 14 15 15 15 15 14 15 16 18 21 23 22 22 25 22 23 23 24 26 30 33 35 37 38 38 38 39 37 40 39 40 39 39 38 38 39 41 43 44 45 47
11 12 14 14 15 15 13 13 14 15 18 21 23 22 23 21 22 23 23 24 26 31 33 35 37 37 37 37 38 39 40 40 42 34 35 40 39 40 42 42 45 48 49
11 13 14 14 14 14 12 12 12 15 18 21 21 21 22 20 21 22 23 25 27 29 30 33 34 35 36 37 37 36 35 36 37 37 38 41 38 42 41 42 46 47 47
12 13 14 14 13 13 12 11 12 15 18 20 20 20 20 21 21 21 23 26 27 29 30 28 29 31 32 34 33 33 35 36 35 36 36 45 44 45 42 43 44 44 43
13 13 14 13 12 14 11 10 12 15 17 19 19 19 21 23 22 20 24 28 30 31 29 27 28 31 33 36 34 34 36 39 40 37 40 41 41 46 44 44 41 36 46
15 14 14 13 12 14 11 10 12 15 17 19 18 19 21 21 20 22 25 27 30 31 30 30 30 30 31 31 32 32 35 38 40 42 36 43 44 45 47 41 34 40 39
Wind_Direction
14 9 9 7 6 6 7 7 7 4 4 4 4 6 10 22 25 25 21 17 15 13 7 2 359 358 358 360 358 353 349 341 338 339 334 327 324 298 275 285 278 277 272
18 14 14 13 10 10 9 9 10 7 5 7 6 5 11 27 26 21 15 14 10 11 12 6 1 358 357 1 358 356 350 345 338 332 332 333 331 323 295 280 274 278 285
18 24 26 23 20 17 15 14 12 10 6 4 3 3 16 26 27 22 16 10 9 9 6 4 1 358 1 2 359 353 349 344 341 335 331 329 329 329 322 297 278 273 278
23 27 26 22 20 16 15 14 11 8 4 4 5 18 29 26 22 18 14 9 6 4 359 358 357 359 355 349 349 349 347 343 339 337 333 331 329 328 326 326 308 278 279
25 26 25 23 22 18 14 15 12 13 11 12 27 29 27 21 17 13 9 8 6 1 356 353 352 355 357 352 347 343 341 339 337 337 335 331 327 326 325 318 321 310 308
26 26 26 23 21 19 16 17 17 15 16 28 35 32 26 21 17 12 8 6 2 358 352 349 352 354 353 349 346 342 337 335 334 334 333 333 328 324 321 321 311 310 319
23 25 25 23 23 21 18 18 20 17 13 16 29 27 23 19 12 8 5 1 356 352 349 348 350 349 349 347 344 340 336 334 332 331 329 327 325 322 320 317 318 314 309
28 25 26 26 24 23 20 18 18 20 18 11 11 8 359 0 3 2 359 356 351 350 348 349 346 345 344 343 340 338 336 334 330 327 325 323 322 320 319 319 315 323 316
29 29 30 27 26 26 24 23 22 22 21 15 11 10 359 351 350 353 354 353 348 347 345 346 346 344 340 336 333 332 333 331 327 326 324 321 319 317 315 314 314 311 319
30 32 30 27 27 25 21 22 22 22 21 16 12 9 10 5 354 350 354 351 348 345 342 343 343 343 340 335 331 329 328 325 324 322 321 321 320 317 314 312 310 308 306
37 36 30 26 23 22 20 21 21 21 20 18 13 3 358 357 357 354 348 344 347 346 342 343 343 341 339 334 332 330 325 325 323 320 318 315 315 316 315 312 309 306 304
33 28 27 25 22 17 15 18 20 19 18 17 14 8 360 353 349 350 349 345 344 345 345 341 339 338 336 336 332 327 326 323 319 317 317 316 314 312 311 309 309 306 303
26 24 22 20 17 15 14 16 18 17 15 13 10 6 1 356 354 352 351 345 344 346 344 344 340 338 336 333 331 326 323 321 320 317 315 315 314 312 310 309 306 304 303
22 20 19 18 14 13 13 12 15 13 13 12 9 4 360 357 353 352 351 345 342 343 342 341 338 334 333 331 328 324 321 318 316 316 315 313 311 310 308 306 305 303 301
19 18 16 13 12 11 9 9 10 8 9 9 6 1 358 355 352 354 351 347 344 339 337 340 332 334 331 329 325 323 318 316 314 312 314 312 310 308 306 304 303 302 300
14 13 11 9 8 7 6 6 4 6 6 5 2 359 354 352 353 351 350 351 349 343 337 335 332 331 330 327 325 321 318 314 313 313 312 311 309 308 306 305 303 301 300
8 6 5 4 2 2 3 2 1 4 2 2 359 356 353 351 350 349 350 350 347 343 335 334 337 333 331 326 323 321 318 316 315 314 312 310 308 307 305 304 303 301 299
359 0 0 358 358 359 359 357 358 360 360 358 355 354 349 348 347 348 348 346 344 344 339 333 334 333 331 327 324 321 320 319 317 315 312 311 310 309 307 304 302 301 298
350 354 353 352 353 354 354 355 358 358 357 355 352 349 346 346 344 345 346 343 343 343 340 336 331 334 331 329 324 323 321 320 321 317 316 315 312 311 310 306 303 301 299
338 343 346 347 349 351 351 353 356 355 354 352 351 348 346 346 345 346 344 344 344 340 339 335 331 330 329 329 328 324 322 324 321 321 319 317 314 313 312 310 308 304 301
324 333 338 341 345 346 349 352 351 351 351 349 349 347 348 345 351 350 347 346 344 340 337 334 332 330 330 330 328 328 323 323 322 321 319 318 317 315 314 311 309 307 303
314 324 330 335 339 343 346 348 350 350 349 348 347 348 347 349 349 349 350 349 346 340 337 334 332 331 332 330 329 327 325 324 323 326 324 318 317 315 313 312 310 307 304
306 314 323 329 334 338 341 345 348 347 346 346 347 346 346 348 347 347 348 347 345 343 341 337 335 334 332 332 331 331 331 328 324 325 322 317 319 314 314 313 310 307 305
295 307 315 322 328 334 336 339 344 344 343 345 347 346 346 344 344 346 346 344 343 342 342 341 340 338 337 336 335 332 331 328 327 325 325 316 316 313 313 313 312 308 307
294 300 312 317 320 327 330 334 340 340 340 341 345 346 343 341 344 345 343 340 339 339 342 342 340 339 338 337 337 335 333 330 327 326 325 320 320 316 314 313 312 311 309
293 299 303 311 315 322 324 325 333 336 335 337 342 343 342 342 343 341 339 338 337 338 340 339 339 339 340 340 339 338 334 330 327 325 329 322 320 320 315 315 315 314 312